Location: Navajo
(48.7922°N, 105.0603°W)
Time: 04:12:40
(UTC+00:00)

CUBEBUG 2 - Pass Details

Date: 09 July 2022
Orbit: 584 x 693 km, 97.7° (Epoch: 07 August)

Event Time Altitude Azimuth Distance (km) Brightness Sun altitude
Rises 10:11:38 0° 12° (NNE) 2,862 ? -7.7°
Reaches altitude 10° 10:13:47 10° 12° (NNE) 1,967 ? -7.4°
Maximum altitude 10:18:03 84° 284° (WNW) 630 ? -6.9°
Drops below altitude 10° 10:22:26 10° 198° (SSW) 2,014 ? -6.4°
Enters shadow 10:23:36 - 197° (SSW) 2,494 ? -6.3°
